Bar Harbor, ME

11:10 AM EDT on October 16, 2019 (GMT -0400)
Hancock County-Bar Harbor

Weather History for KBHB - August, 2019

Change the Weather History Date:

Monday, August 12, 2019

  Actual Average Record
Temperature  
Mean Temperature 70 °F -  
Max Temperature 79 °F 77 °F 87 °F (1974)
Min Temperature 60 °F 56 °F 45 °F (1968)
Cooling Degree Days 4    
Growing Degree Days 20 (Base 50)    
Moisture  
Dew Point 59 °F    
Average Humidity 73    
Maximum Humidity 93    
Minimum Humidity 54    
Precipitation  
Precipitation 0.04 in - - ()
Sea Level Pressure  
Sea Level Pressure 29.83 in    
Wind  
Wind Speed 6 mph (SW)    
Max Wind Speed 14 mph    
Max Gust Speed -    
Visibility 10 miles    
Events Rain , Thunderstorm    
Averages and records for this station are not official NWS values.
T = Trace of Precipitation, MM = Missing Value Source: NWS Daily Summary

Daily Weather History Graph

Daily Weather History Graph

Search for Another Location

Airport or City:

Astronomy

Aug. 12, 2019 Rise Set
Actual Time 5:32 AM EDT 7:43 PM EDT
Civil Twilight 5:00 AM EDT 8:15 PM EDT
Nautical Twilight 4:21 AM EDT 8:54 PM EDT
Astronomical Twilight 3:37 AM EDT 9:38 PM EDT
Moon 6:16 PM EDT (8/12) 2:33 AM EDT (8/12)
Length of Visible Light 15h 14m
Length of Day
14h 11m
Waxing Gibbous, 93% of the Moon is Illuminated
Aug 12
Waxing Gibbous
Aug 15
Full
Aug 23
Last Quarter
Aug 30
New
Sep 5
First Quarter

Hourly Weather History & Observations

Time (EDT) Temp. Dew Point Humidity Pressure Visibility Wind Dir Wind Speed Gust Speed Precip Events Conditions
12:56 AM 60.1 °F 55.0 °F 83% 29.87 in 10.0 mi SSW 5.8 mph - 0.01 in   Partly Cloudy
1:56 AM 63.0 °F 55.9 °F 78% 29.87 in 10.0 mi SW 6.9 mph - N/A   Mostly Cloudy
2:56 AM 62.1 °F 55.0 °F 78% 29.86 in 10.0 mi SW 4.6 mph - N/A   Mostly Cloudy
3:56 AM 62.1 °F 55.0 °F 78% 29.86 in 10.0 mi SW 5.8 mph - N/A   Partly Cloudy
4:56 AM 60.1 °F 55.0 °F 83% 29.86 in 10.0 mi SW 3.5 mph - N/A   Clear
5:56 AM 62.1 °F 55.0 °F 78% 29.87 in 10.0 mi South 3.5 mph - N/A   Clear
6:56 AM 64.9 °F 57.0 °F 75% 29.88 in 10.0 mi SSW 4.6 mph - N/A   Partly Cloudy
7:56 AM 68.0 °F 57.9 °F 70% 29.89 in 10.0 mi SW 5.8 mph - 0.00 in Rain Light Rain
8:56 AM 69.1 °F 57.9 °F 68% 29.89 in 10.0 mi WSW 4.6 mph - 0.01 in   Overcast
9:56 AM 70.0 °F 59.0 °F 68% 29.88 in 10.0 mi SW 3.5 mph - N/A   Overcast
10:56 AM 73.9 °F 61.0 °F 64% 29.88 in 10.0 mi SW 3.5 mph - N/A   Overcast
11:56 AM 78.1 °F 61.0 °F 56% 29.86 in 10.0 mi West 8.1 mph - N/A   Clear
12:56 PM 79.0 °F 61.0 °F 54% 29.83 in 10.0 mi SSW 10.4 mph - N/A   Clear
1:56 PM 79.0 °F 61.0 °F 54% 29.82 in 10.0 mi SSW 11.5 mph - 0.01 in   Clear
2:56 PM 78.1 °F 60.1 °F 54% 29.80 in 10.0 mi SSW 12.7 mph - N/A   Clear
3:56 PM 75.0 °F 62.1 °F 64% 29.80 in 10.0 mi SSW 10.4 mph - N/A   Clear
4:56 PM 73.9 °F 59.0 °F 59% 29.79 in 10.0 mi SSW 10.4 mph - N/A   Clear
5:56 PM 70.0 °F 59.0 °F 68% 29.79 in 10.0 mi SSW 13.8 mph - N/A   Scattered Clouds
6:56 PM 68.0 °F 60.1 °F 76% 29.81 in 10.0 mi SSW 8.1 mph - N/A   Clear
7:56 PM 66.0 °F 59.0 °F 78% 29.81 in 10.0 mi Variable 4.6 mph - N/A   Mostly Cloudy
8:56 PM 64.9 °F 60.1 °F 84% 29.81 in 10.0 mi SSW 6.9 mph - 0.00 in Rain , Thunderstorm Light Thunderstorms and Rain
9:20 PM 64.4 °F 60.8 °F 88% 29.79 in 10.0 mi Calm Calm - 0.00 in   Overcast
9:56 PM 64.0 °F 61.0 °F 90% 29.79 in 10.0 mi SSW 5.8 mph - 0.01 in   Mostly Cloudy
10:56 PM 64.0 °F 60.1 °F 87% 29.78 in 10.0 mi SSW 6.9 mph - N/A   Partly Cloudy
11:56 PM 62.1 °F 60.1 °F 93% 29.77 in 10.0 mi SW 4.6 mph - N/A   Clear